CAPE
443 660 967 1442 1740 1796 1706 992 1003 1868 2476 2397 2179 2341 2774 2807 2877 2516 2463 2077 1963 2158 1959 1750 1689 1205 1190 1398 1337 934 610 436 354 377 419 244 515 358 19 610 1076 1139 936
226 416 815 1038 1162 1140 1094 6 670 1415 1808 1435 1469 1403 1444 1532 1826 2031 2116 2043 1996 1968 2191 2003 1850 1739 1705 1590 1285 743 646 690 560 303 392 372 220 133 82 809 709 887 817
93 116 137 688 920 938 698 643 612 835 1006 819 646 795 872 873 1133 1309 1427 1544 1528 1665 1687 1517 1047 760 536 543 663 459 563 536 449 313 233 230 294 60 0 538 951 828 1077
0 29 93 130 563 793 882 747 656 654 658 620 586 604 546 594 822 892 906 1122 1034 818 384 132 56 12 8 37 87 184 117 48 16 102 250 214 256 511 1096 697 601 570 606
2 2 1 77 58 360 787 822 668 528 395 399 624 641 577 665 606 542 436 407 396 176 13 0 0 0 0 0 0 0 4 0 0 0 2 77 147 303 838 750 509 508 809
14 4 1 0 28 2 57 571 976 799 567 537 482 471 527 516 484 328 590 413 81 1 0 0 0 0 0 0 0 0 0 0 0 0 0 0 163 235 555 855 786 805 137
0 17 7 0 0 5 0 19 641 1149 1175 882 531 490 509 491 137 70 42 94 27 0 0 0 0 0 0 0 0 0 0 0 0 0 163 115 170 412 626 793 948 824 239
1 0 4 16 2 0 0 0 66 531 958 946 1065 581 447 618 0 0 0 99 2 0 0 0 0 0 0 1 30 1 0 39 125 164 192 424 530 712 767 1090 941 692 350
0 1 0 3 9 13 0 0 12 12 481 879 957 1269 938 689 0 0 0 0 0 0 0 0 0 0 0 0 4 0 0 0 1 0 0 52 167 275 134 293 521 47 18
1 0 0 0 0 0 9 0 0 26 17 229 664 829 1264 1213 0 0 0 0 0 0 0 2 0 0 0 0 0 27 12 0 0 12 22 163 206 156 68 182 108 33 84
7 4 3 2 1 0 0 28 0 0 0 0 79 357 661 1084 83 0 0 0 0 0 0 0 0 0 0 0 0 56 8 0 0 0 0 423 445 514 331 83 33 66 315
7 4 4 4 0 0 1 0 14 1 0 0 0 84 404 570 667 0 0 0 0 0 0 0 0 0 0 0 0 0 0 0 0 0 13 465 605 414 195 210 627 491 488
5 4 5 6 14 3 1 0 1 43 0 0 0 1 241 569 595 0 0 0 0 0 0 0 0 0 0 0 0 0 0 0 0 9 407 614 724 516 322 489 348 417 515
3 2 3 3 5 10 3 0 2 22 33 97 141 146 145 454 549 32 0 0 0 0 0 0 0 0 0 0 0 0 0 0 1 351 514 769 774 853 442 552 608 417 336
3 3 5 3 4 3 3 3 0 15 28 28 207 171 321 385 392 286 0 0 0 0 0 0 0 0 0 0 0 0 0 0 102 419 572 743 598 482 459 383 315 295 313
6 4 3 5 3 4 5 3 0 0 0 0 0 68 116 210 169 44 4 0 0 0 0 0 0 0 0 0 0 0 16 4 150 635 588 514 304 446 405 286 295 373 305
3 3 2 6 3 3 9 7 3 0 0 0 0 0 0 0 5 17 0 0 0 0 0 0 0 0 0 0 0 0 11 5 161 575 389 265 506 418 287 241 265 300 224
2 2 3 3 2 3 6 8 12 7 2 0 0 0 0 0 0 0 0 0 0 0 0 0 0 0 0 0 0 0 11 8 168 378 301 498 465 388 277 261 263 359 217
1 0 0 1 0 7 0 3 26 15 13 0 0 0 0 0 0 0 0 0 0 0 0 0 0 0 0 0 0 10 2 125 80 338 437 455 416 362 251 245 225 160 125
1 0 2 0 21 7 1 6 3 8 3 12 0 0 1 0 0 0 0 0 0 0 0 0 0 0 0 0 4 17 122 254 171 408 432 437 282 206 253 190 168 148 57
3 0 0 0 0 0 0 6 39 31 6 13 5 15 11 0 0 0 0 0 0 0 0 0 0 0 0 0 7 232 410 301 470 449 481 337 229 327 188 96 110 65 50
0 3 0 0 1 5 0 1 0 0 0 0 0 5 0 0 0 0 0 0 0 0 0 0 5 2 1 3 3 394 367 393 468 442 525 382 373 188 122 97 54 52 1
3 0 1 0 1 1 2 3 1 2 2 1 3 1 8 13 12 4 1 1 1 1 0 0 4 0 22 18 234 305 423 418 340 535 486 270 149 161 99 51 68 18 4
0 4 15 19 0 0 3 29 3 2 6 13 18 31 15 7 19 19 18 15 15 9 4 5 8 9 62 47 205 213 420 472 441 448 210 122 163 108 98 79 45 14 0
5 2 2 2 26 35 40 18 39 52 24 20 19 4 0 4 1 12 9 19 4 3 4 3 11 87 63 162 160 377 405 144 263 210 177 116 74 61 4 0 0 0 0
7 6 7 6 4 3 2 1 1 2 2 14 20 29 8 2 1 0 10 27 24 19 23 88 94 112 152 260 319 191 21 59 37 28 129 89 46 7 1 0 0 0 0
CIN
-17 -32 -7 -2 -3 -13 -10 -41 -7 -8 -8 -5 -5 -2 -1 -2 -1 -2 -2 -2 -4 -3 -2 -2 -3 -29 -11 -16 -33 -43 -24 -18 -13 -15 -9 -10 -41 -25 -73 -32 -1 -2 -9
-21 -31 -3 -8 -7 -14 -4 -7 -6 -19 -56 -42 -38 -48 -39 -33 -18 -2 -1 -1 -1 -4 -0 -0 -0 -1 -1 -12 -17 -30 -17 -3 -3 -6 -15 -17 -56 -62 -70 -16 -27 -9 -4
-56 -63 -128 -7 -7 -15 -2 -2 -4 -29 -62 -75 -84 -73 -71 -72 -62 -25 -6 -2 -1 -1 -1 -1 -1 -7 -17 -17 -3 -2 -3 -4 -3 -1 -2 -14 -16 -61 0 -29 -2 -6 -2
-1 -52 -74 -81 -7 -3 -1 -4 -5 -50 -76 -76 -77 -77 -78 -93 -59 -38 -17 -2 -7 -5 -3 -32 -102 -70 -72 -107 -69 -22 -35 -38 -24 -11 -1 -1 -2 -4 -12 -27 -27 -25 -27
-3 -3 -16 -29 -101 -34 -2 -2 -9 -37 -75 -91 -89 -69 -68 -77 -78 -71 -42 -13 -2 -4 -17 -36 0 0 0 0 0 0 -44 0 0 0 -0 -45 -2 -5 -2 -14 -32 -27 -17
-3 -2 -2 0 -34 -100 -96 -11 -1 -3 -21 -60 -70 -83 -57 -51 -47 -71 -18 -23 -67 -46 0 0 0 0 0 0 0 0 0 0 0 0 0 0 -4 -7 -2 -1 -7 -3 -27
0 -4 -2 0 0 -47 0 -39 -2 -2 -1 -1 -17 -86 -49 -45 -118 -129 -126 -57 -63 0 0 0 0 0 0 0 0 0 0 0 0 0 -49 -57 -18 -4 -5 -7 -4 -3 -20
-4 -8 -7 -5 -2 0 -17 0 -17 -9 -9 -7 -2 -4 -8 -6 0 0 0 -28 -15 0 0 0 0 0 0 -14 -50 -10 -1 -116 -88 -154 -80 -14 -6 -4 -5 -4 -6 -9 -14
0 0 -0 -16 -18 -2 0 0 -2 -13 -3 -10 -9 -2 -0 -6 0 0 0 0 0 0 0 0 0 0 0 0 -150 0 0 -0 -1 -6 -6 -162 -59 -59 -84 -45 -9 -35 -40
0 0 0 0 0 0 -8 0 0 -29 -8 -3 -18 -14 -0 -2 0 0 0 0 0 0 0 -15 0 0 0 0 0 -141 -175 0 0 -164 -202 -65 -87 -113 -118 -67 -26 -57 -13
0 0 -0 -6 -1 0 0 -2 0 0 0 0 -10 -17 -18 -3 -60 0 0 0 0 0 0 0 0 0 0 0 0 -149 -212 0 0 0 0 -32 -46 -36 -69 -103 -98 -52 -3
0 0 0 -0 0 0 0 0 -8 -7 0 0 0 -11 -5 -8 -10 0 0 0 0 0 0 0 0 0 0 0 0 0 0 0 0 0 -196 -37 -13 -45 -91 -86 -14 -6 -9
0 0 0 0 -0 -0 0 0 -6 -2 0 0 0 -31 -5 -4 -4 0 0 0 0 0 0 0 0 0 0 0 0 0 0 0 0 -286 -46 -25 -11 -44 -73 -55 -56 -6 -2
0 0 0 0 0 0 0 0 -1 -2 0 -4 0 -9 -16 0 -0 -22 0 0 0 0 0 0 0 0 0 0 0 0 0 0 -29 -82 -28 -3 -1 -0 -25 -15 -7 -6 -2
0 0 0 0 0 0 0 0 0 -9 -0 -1 0 0 -1 0 -0 -2 0 0 0 0 0 0 0 0 0 0 0 0 0 0 -190 -48 -11 -0 -19 -34 -24 -18 -9 -7 -0
0 0 0 0 0 0 0 0 0 0 0 0 0 -21 -13 -1 -7 -96 -35 0 0 0 0 0 0 0 0 0 0 0 -263 -208 -134 -3 -1 -9 -36 -3 -2 -3 -6 -2 -1
0 0 0 0 -5 0 0 0 0 0 0 0 0 0 0 -0 -44 -38 -12 0 0 0 0 0 0 0 0 0 0 0 -255 -280 -85 -1 -14 -32 -5 -4 -6 -2 -3 -6 -5
0 -0 0 0 0 0 0 0 0 -0 0 0 0 0 0 0 0 0 0 0 0 0 0 0 0 0 0 0 0 -0 -62 -266 -83 -10 -20 -6 -5 -1 -4 -3 -5 -0 -15
-0 0 0 0 -0 0 -0 0 0 -0 -0 0 0 0 0 0 0 0 0 0 0 0 0 0 0 0 0 0 0 -163 -7 -119 -144 -13 -8 -7 -7 -6 -9 -14 -15 -22 -20
-1 0 -0 -0 -0 -1 -2 -0 -0 -0 -0 -0 -1 0 -0 0 0 0 0 0 0 0 0 0 0 0 0 0 -74 -221 -166 -58 -73 -3 -5 -9 -18 -14 -12 -21 -9 -4 -7
-1 0 -0 0 0 0 0 -0 -0 -0 0 -0 -6 -2 -5 0 0 0 0 0 0 0 0 0 0 0 0 0 -124 -130 -35 -26 -3 -7 -5 -20 -14 -4 -21 -25 -5 -19 -27
-0 -0 0 -0 -0 0 -0 0 0 0 0 0 0 -1 0 0 0 -1 -1 0 0 0 0 -1 -3 -2 -2 -3 -3 -49 -24 -3 -2 -5 -2 -11 -5 -15 -15 -1 -4 -13 -42
-1 -2 -9 -7 -9 -18 -0 -1 -1 -0 -1 -1 -1 -5 -11 -1 -3 -1 -3 -1 -1 -1 -0 -0 -4 0 -176 -3 -88 -46 -1 -6 -11 -3 -5 -15 -16 -12 -2 -3 -8 -8 -1
-0 -1 -3 -0 -2 0 -7 -5 -13 -11 -7 -5 -2 -1 -1 -1 -2 -1 -3 -2 -1 -2 -2 -2 -5 -7 -132 -112 -49 -33 -3 -5 -3 -7 -22 -23 -4 -2 -9 -13 -8 -2 0
0 0 0 0 -0 -1 -5 -5 -7 -13 -7 -1 -1 -4 0 -1 -1 -2 -10 -8 -20 -11 -2 -14 -16 -74 -55 -6 -19 -1 -3 -50 -21 -18 -10 -8 -14 -14 -21 -16 0 0 0
0 0 0 0 0 0 0 0 0 0 -24 -24 -34 -20 -1 -1 -1 0 -7 -4 -2 -1 -2 -14 -11 -12 -5 -0 -1 -32 -125 -79 -49 -26 -4 -8 -9 -4 -1 0 0 0 0
Wind_Speed
36 36 38 41 39 43 45 50 44 19 19 23 23 13 17 20 21 22 25 26 25 25 26 27 25 21 21 20 19 23 14 11 14 24 33 32 33 32 30 28 26 28 19
34 33 35 36 38 42 32 34 46 10 14 15 16 18 19 19 20 22 26 25 27 26 24 23 23 20 19 19 20 15 11 21 30 28 29 30 29 30 28 26 29 26 17
33 34 32 32 37 39 32 26 18 18 19 20 20 20 19 20 20 19 21 22 23 22 19 17 14 13 15 19 20 23 20 22 19 16 24 25 24 27 27 26 29 25 19
37 34 34 33 33 37 36 30 24 23 22 22 20 21 21 19 18 16 17 16 14 12 13 15 16 17 19 21 24 25 27 28 31 29 23 22 28 27 29 31 31 24 17
42 41 36 34 33 36 36 36 34 31 26 25 24 23 23 19 17 14 12 12 12 13 16 19 20 23 27 30 29 28 27 27 27 31 33 25 25 29 30 31 25 26 15
49 48 44 37 37 32 34 36 35 33 30 27 25 24 22 18 16 14 10 10 11 13 17 20 22 24 28 30 33 35 33 33 33 32 34 33 29 30 32 32 32 31 17
56 53 49 46 38 40 33 34 37 37 31 30 28 25 23 23 15 14 10 9 11 14 17 20 23 24 24 26 25 21 20 19 11 16 21 24 32 28 32 33 31 27 12
55 56 55 51 46 39 41 39 34 35 36 34 30 25 27 22 18 16 13 12 13 13 16 21 24 25 25 27 28 27 28 29 25 18 11 12 24 23 25 33 28 25 20
56 57 52 55 52 43 42 45 43 33 35 35 34 31 28 25 20 16 15 15 15 16 18 21 24 26 27 26 27 29 29 29 30 30 27 22 12 8 15 36 25 21 24
37 46 53 54 54 51 44 40 43 47 40 36 36 39 29 27 21 20 19 16 18 19 21 26 27 29 27 26 27 29 30 30 31 33 34 32 19 7 9 17 20 18 10
23 27 29 44 54 53 52 43 40 48 45 43 42 38 39 30 27 24 20 22 20 21 27 27 27 24 28 28 27 28 29 31 34 34 34 29 14 8 4 14 14 15 13
26 24 28 25 56 57 54 51 44 40 44 49 44 41 40 41 30 26 24 25 27 29 30 29 27 27 26 26 27 29 30 33 33 32 26 16 9 6 5 13 16 28 10
18 22 27 23 37 46 55 52 48 39 38 42 45 48 40 35 31 29 28 26 33 32 33 30 27 30 32 34 37 36 34 33 32 31 20 9 7 6 8 11 12 25 12
13 16 17 20 29 36 46 49 50 47 40 36 35 43 45 42 33 29 30 33 40 37 35 36 37 37 37 38 38 34 30 33 31 29 18 5 5 8 10 9 14 22 10
9 7 9 14 17 30 41 50 48 49 45 41 36 35 37 39 36 29 28 32 35 34 31 36 38 37 36 35 34 33 33 31 26 22 13 5 7 12 7 5 25 13 6
8 3 14 11 11 25 34 44 57 51 49 43 37 37 38 37 35 29 27 28 29 29 31 35 35 34 36 35 34 32 27 29 23 10 6 5 6 8 4 26 10 21 5
18 13 17 16 23 37 39 41 43 58 51 49 40 37 32 33 40 33 28 23 24 24 31 34 36 36 36 36 34 32 28 28 17 3 1 2 7 5 11 26 27 24 3
27 21 22 21 24 30 33 36 31 37 47 47 42 39 36 33 34 29 28 26 30 31 33 38 40 40 39 38 36 32 25 25 17 7 4 3 0 13 14 26 2 1 2
25 26 23 19 22 25 29 28 28 22 33 34 40 38 35 34 31 32 31 33 35 37 36 42 41 41 40 38 36 31 28 19 16 9 5 3 3 3 4 13 3 3 6
26 26 25 23 23 25 24 6 13 19 24 26 39 44 36 35 39 37 36 36 37 37 36 34 41 41 39 38 35 30 25 18 9 8 4 4 1 3 8 1 1 1 3
23 23 22 23 23 23 21 21 12 4 17 23 33 40 51 44 44 40 40 39 40 40 38 39 36 36 37 36 30 28 22 14 6 6 7 5 3 12 3 9 9 3 2
19 19 21 22 21 21 22 22 23 25 27 32 38 32 36 39 47 46 45 44 45 44 40 37 35 32 29 29 28 26 21 14 6 7 4 6 26 10 5 2 4 2 4
17 19 20 21 20 20 21 23 24 25 28 32 35 27 27 30 33 36 39 39 40 40 39 37 34 35 30 28 26 27 22 15 8 11 5 25 11 6 2 0 3 3 3
16 17 15 14 16 17 18 19 21 23 25 28 31 22 21 25 31 34 31 30 29 32 32 36 35 38 31 32 31 29 26 22 18 11 6 12 6 4 3 1 3 4 4
19 15 15 13 12 13 15 17 18 21 24 26 30 32 34 34 35 35 36 34 29 35 36 38 35 32 34 32 31 29 24 16 18 10 8 5 3 3 4 3 4 3 4
13 11 10 12 13 10 13 17 16 17 20 25 29 31 33 35 36 37 35 34 39 38 38 33 34 37 38 36 36 32 21 14 30 10 5 5 4 3 3 5 6 6 6
Wind_Direction
302 291 278 269 267 261 260 256 256 247 236 242 278 263 252 258 264 268 273 274 273 274 275 278 281 282 287 290 293 296 292 280 294 312 301 305 307 314 311 314 323 320 331
305 299 286 277 268 262 267 262 257 263 232 240 242 250 257 262 269 272 276 275 273 274 276 279 283 284 285 290 293 296 290 304 306 311 308 308 311 315 313 313 313 318 330
302 296 292 282 269 264 263 264 255 253 250 249 249 254 258 264 269 273 280 278 275 274 274 275 280 285 288 293 296 300 303 305 310 309 311 312 313 316 312 313 304 313 323
293 294 290 285 275 264 263 264 258 254 253 253 255 258 259 261 266 271 275 276 277 272 275 280 285 288 290 292 295 298 299 300 299 306 311 312 306 308 311 302 299 309 318
287 284 284 282 276 269 264 262 261 262 258 258 255 256 257 257 259 261 264 271 272 277 278 280 285 286 284 284 288 293 298 300 303 301 300 312 312 301 303 302 311 308 317
281 276 275 277 272 271 267 263 259 257 256 253 247 251 253 251 247 244 253 265 271 276 279 280 287 289 285 283 280 278 284 290 293 297 297 300 311 303 299 296 295 299 314
277 274 270 268 269 264 263 264 258 255 252 250 248 247 249 249 238 233 242 262 270 278 280 279 283 290 293 288 292 300 303 306 299 307 310 311 302 309 298 293 297 303 313
277 271 267 266 263 263 255 259 262 257 253 251 251 247 247 240 231 225 229 255 268 276 280 279 281 287 291 287 283 289 292 298 307 317 311 312 311 305 298 287 300 301 311
278 268 267 263 262 260 257 249 255 256 255 251 249 247 244 240 225 221 225 252 265 273 279 280 281 285 288 292 288 285 289 296 294 296 310 319 313 287 250 269 293 304 310
291 277 266 261 258 258 256 248 244 247 249 252 249 246 244 240 226 225 233 248 261 268 273 275 277 276 281 288 287 283 287 293 292 289 290 302 325 308 315 301 298 317 326
289 285 276 263 256 254 254 253 245 243 243 247 248 249 247 243 239 231 227 247 259 264 267 271 274 281 277 281 287 287 288 295 288 287 289 309 337 355 17 298 321 213 329
291 281 277 258 255 251 251 250 250 245 238 242 247 251 246 246 245 232 231 243 258 260 262 266 274 281 285 287 289 289 289 286 290 292 312 326 345 1 32 333 325 268 335
274 278 277 266 264 253 245 243 244 241 239 233 241 242 245 244 243 239 237 240 252 258 259 267 274 276 278 277 271 275 277 282 281 286 315 332 343 351 353 342 352 240 333
283 250 244 257 263 256 243 241 239 238 236 233 231 235 236 242 240 239 241 245 246 253 260 263 264 266 269 269 270 279 283 271 276 285 312 347 350 344 338 351 312 270 319
341 277 250 236 246 254 245 236 238 238 238 235 237 235 233 235 237 236 239 244 248 253 262 262 260 263 265 270 273 273 263 268 287 296 312 342 340 334 354 286 247 275 323
3 322 203 186 217 247 243 236 232 236 238 240 241 238 239 238 238 232 232 241 247 251 254 257 257 260 261 263 268 270 274 274 289 311 318 335 339 342 130 234 290 254 310
45 71 94 134 157 212 217 220 229 225 233 237 240 239 242 244 238 233 229 233 240 244 248 252 252 257 259 263 266 268 276 277 297 267 197 311 326 359 301 217 219 236 64
59 80 93 124 151 211 215 220 237 227 226 230 235 239 239 243 239 231 225 231 241 248 252 252 249 250 254 256 261 267 283 281 289 283 202 293 224 163 156 217 54 8 33
67 74 92 122 129 162 207 240 238 234 234 234 234 238 236 237 237 233 231 238 244 247 251 247 248 250 252 256 258 264 275 286 287 276 284 277 153 95 291 269 327 68 94
68 70 81 94 113 122 145 296 251 240 238 237 234 236 235 231 231 233 236 241 244 247 252 256 249 252 254 253 258 267 275 282 276 261 250 272 170 295 273 301 53 24 50
79 88 96 100 106 116 133 140 96 283 245 235 232 231 225 228 230 234 237 241 244 249 253 251 254 255 252 254 264 269 275 277 246 238 273 265 186 258 231 125 122 67 33
89 99 98 101 111 128 126 133 141 151 188 209 209 219 218 224 227 232 236 241 240 242 247 250 252 255 255 259 263 265 268 266 249 259 236 242 236 243 223 268 295 48 75
89 97 100 105 117 132 133 132 131 139 152 166 194 223 226 229 231 232 234 235 235 236 239 243 247 246 257 256 260 255 259 261 248 252 200 165 146 166 211 178 104 88 62
94 94 104 116 136 150 144 141 146 151 158 162 176 225 230 230 226 224 230 233 236 238 241 240 240 241 249 247 247 249 252 255 252 248 195 147 220 239 260 117 99 87 74
85 99 99 115 136 143 151 143 157 164 165 168 168 171 183 203 211 212 215 222 231 229 229 228 235 241 236 238 238 236 245 248 242 226 200 197 197 138 129 127 98 82 83
89 97 118 115 119 135 134 131 148 170 166 175 177 171 176 187 194 198 207 214 205 207 210 224 226 222 221 223 220 230 238 237 216 190 197 174 155 153 112 106 111 102 96